• în România
  • Lista ţărilor
  • Pe 7 zile
  • Temperatura apei
  • Hartă satelitară
  • Meteo pe hartă
  • Widget-uri
  • user-avatar
    Intrare

    Meteo pe oră la Haradok

    Astăzi, 20 Iunie, Miercuri

    Timp Temperatura Precipitaţii Vânt Presiune Umiditate
    00:00 +16°C° 0 mm 3 m/s 747 mmHg 88%
    01:00 +14°C° 0 mm 3 m/s 747 mmHg 89%
    02:00 +13°C° 0 mm 4 m/s 747 mmHg 90%
    03:00 +13°C° 0 mm 3 m/s 747 mmHg 90%
    04:00 +13°C° 0 mm 3 m/s 748 mmHg 90%
    05:00 +13°C° 0 mm 3 m/s 748 mmHg 90%
    06:00 +14°C° 0 mm 4 m/s 748 mmHg 82%
    07:00 +16°C° 0 mm 5 m/s 748 mmHg 74%
    08:00 +17°C° 0 mm 5 m/s 748 mmHg 67%
    09:00 +19°C° 0 mm 5 m/s 748 mmHg 62%
    10:00 +20°C° 0 mm 6 m/s 748 mmHg 57%
    11:00 +21°C° 0 mm 6 m/s 748 mmHg 52%
    12:00 +22°C° 0 mm 6 m/s 748 mmHg 50%
    13:00 +22°C° 0 mm 6 m/s 748 mmHg 48%
    14:00 +23°C° 0 mm 7 m/s 748 mmHg 46%
    15:00 +22°C° 0 mm 6 m/s 748 mmHg 47%
    16:00 +22°C° 0 mm 6 m/s 748 mmHg 48%
    17:00 +22°C° 0 mm 6 m/s 748 mmHg 49%
    18:00 +20°C° 0 mm 5 m/s 748 mmHg 55%
    19:00 +19°C° 0 mm 4 m/s 748 mmHg 61%
    20:00 +17°C° 0 mm 3 m/s 748 mmHg 68%
    21:00 +16°C° 0 mm 3 m/s 748 mmHg 70%
    22:00 +14°C° 0 mm 3 m/s 748 mmHg 73%
    23:00 +13°C° 0 mm 3 m/s 748 mmHg 75%

    Mâine, 21 Iunie, Joi

    Timp Temperatura Precipitaţii Vânt Presiune Umiditate
    00:00 +13°C° 0 mm 3 m/s 748 mmHg 79%
    01:00 +12°C° 0 mm 3 m/s 748 mmHg 83%
    02:00 +12°C° 0 mm 2 m/s 748 mmHg 87%
    03:00 +12°C° 0 mm 3 m/s 748 mmHg 86%
    04:00 +12°C° 0 mm 3 m/s 748 mmHg 85%
    05:00 +13°C° 0 mm 3 m/s 748 mmHg 84%
    06:00 +15°C° 0 mm 4 m/s 748 mmHg 78%
    07:00 +18°C° 0 mm 4 m/s 747 mmHg 72%
    08:00 +20°C° 0 mm 5 m/s 747 mmHg 66%
    09:00 +21°C° 0 mm 5 m/s 747 mmHg 61%
    10:00 +23°C° 0 mm 5 m/s 747 mmHg 57%
    11:00 +26°C° 0 mm 6 m/s 746 mmHg 53%
    12:00 +26°C° 0 mm 5 m/s 746 mmHg 53%
    13:00 +26°C° 0 mm 5 m/s 745 mmHg 53%
    14:00 +26°C° 0 mm 5 m/s 745 mmHg 54%
    15:00 +26°C° 0 mm 5 m/s 744 mmHg 55%
    16:00 +26°C° 0 mm 4 m/s 744 mmHg 57%
    17:00 +26°C° 0 mm 4 m/s 744 mmHg 59%
    18:00 +25°C° 0 mm 4 m/s 743 mmHg 64%
    19:00 +23°C° 0 mm 4 m/s 743 mmHg 69%
    20:00 +22°C° 0 mm 4 m/s 742 mmHg 75%
    21:00 +21°C° 0 mm 4 m/s 742 mmHg 76%
    22:00 +20°C° 0 mm 4 m/s 741 mmHg 78%
    23:00 +20°C° 0 mm 4 m/s 741 mmHg 79%

    Poimâine, 22 Iunie, Vineri

    Timp Temperatura Precipitaţii Vânt Presiune Umiditate
    00:00 +19°C° 0,1 mm 4 m/s 740 mmHg 81%
    01:00 +19°C° 0,1 mm 4 m/s 740 mmHg 84%
    02:00 +19°C° 0,1 mm 5 m/s 739 mmHg 86%
    03:00 +19°C° 0,5 mm 5 m/s 738 mmHg 89%
    04:00 +19°C° 0,5 mm 5 m/s 738 mmHg 93%
    05:00 +19°C° 0,5 mm 5 m/s 737 mmHg 96%
    06:00 +19°C° 1,4 mm 5 m/s 738 mmHg 95%
    07:00 +19°C° 1,4 mm 6 m/s 738 mmHg 93%
    08:00 +19°C° 1,4 mm 6 m/s 738 mmHg 91%
    09:00 +17°C° 0,3 mm 6 m/s 739 mmHg 91%
    10:00 +15°C° 0,3 mm 5 m/s 739 mmHg 91%
    11:00 +13°C° 0,3 mm 4 m/s 740 mmHg 90%
    12:00 +14°C° 0,1 mm 4 m/s 740 mmHg 85%
    13:00 +14°C° 0,1 mm 4 m/s 741 mmHg 80%
    14:00 +15°C° 0,1 mm 4 m/s 741 mmHg 76%
    15:00 +15°C° 0 mm 4 m/s 741 mmHg 74%
    16:00 +15°C° 0 mm 4 m/s 741 mmHg 72%
    17:00 +17°C° 0 mm 4 m/s 741 mmHg 71%
    18:00 +16°C° 0 mm 3 m/s 742 mmHg 72%
    19:00 +14°C° 0 mm 3 m/s 742 mmHg 73%
    20:00 +14°C° 0 mm 3 m/s 742 mmHg 75%
    21:00 +13°C° 0 mm 3 m/s 742 mmHg 74%
    22:00 +13°C° 0 mm 3 m/s 742 mmHg 74%
    23:00 +12°C° 0 mm 3 m/s 742 mmHg 74%

    23 Iunie, Sâmbătă

    Timp Temperatura Precipitaţii Vânt Presiune Umiditate
    00:00 +12°C° 0 mm 3 m/s 743 mmHg 75%
    01:00 +11°C° 0 mm 3 m/s 743 mmHg 76%
    02:00 +11°C° 0 mm 3 m/s 743 mmHg 78%
    03:00 +11°C° 0 mm 3 m/s 743 mmHg 80%
    04:00 +10°C° 0 mm 3 m/s 743 mmHg 83%
    05:00 +10°C° 0 mm 3 m/s 743 mmHg 85%
    06:00 +12°C° 0 mm 2 m/s 744 mmHg 81%
    07:00 +13°C° 0 mm 2 m/s 744 mmHg 76%
    08:00 +14°C° 0 mm 2 m/s 744 mmHg 72%
    09:00 +15°C° 0 mm 2 m/s 744 mmHg 66%
    10:00 +17°C° 0 mm 2 m/s 744 mmHg 59%
    11:00 +18°C° 0 mm 2 m/s 744 mmHg 53%
    12:00 +19°C° 0 mm 2 m/s 744 mmHg 51%
    13:00 +19°C° 0 mm 2 m/s 744 mmHg 50%
    14:00 +20°C° 0 mm 2 m/s 743 mmHg 48%
    15:00 +20°C° 0 mm 2 m/s 743 mmHg 50%
    16:00 +19°C° 0 mm 2 m/s 743 mmHg 52%
    17:00 +19°C° 0 mm 2 m/s 743 mmHg 54%
    18:00 +18°C° 0,1 mm 2 m/s 743 mmHg 62%
    19:00 +16°C° 0,1 mm 2 m/s 743 mmHg 71%
    20:00 +15°C° 0,1 mm 2 m/s 743 mmHg 79%
    21:00 +13°C° 0 mm 2 m/s 743 mmHg 83%
    22:00 +12°C° 0 mm 2 m/s 743 mmHg 87%
    23:00 +11°C° 0 mm 1 m/s 743 mmHg 91%

    24 Iunie, Duminică

    Timp Temperatura Precipitaţii Vânt Presiune Umiditate
    00:00 +10°C° 0 mm 2 m/s 743 mmHg 92%
    01:00 +9°C° 0 mm 2 m/s 743 mmHg 94%
    02:00 +9°C° 0 mm 2 m/s 743 mmHg 96%
    03:00 +9°C° 0 mm 2 m/s 744 mmHg 95%
    04:00 +10°C° 0 mm 2 m/s 744 mmHg 95%
    05:00 +10°C° 0 mm 2 m/s 744 mmHg 95%
    06:00 +12°C° 0 mm 2 m/s 744 mmHg 90%
    07:00 +13°C° 0 mm 2 m/s 744 mmHg 86%
    08:00 +14°C° 0 mm 3 m/s 745 mmHg 81%
    09:00 +16°C° 0,5 mm 3 m/s 745 mmHg 78%
    10:00 +17°C° 0,5 mm 3 m/s 745 mmHg 75%
    11:00 +18°C° 0,5 mm 3 m/s 745 mmHg 72%
    12:00 +18°C° 0,7 mm 3 m/s 746 mmHg 73%
    13:00 +18°C° 0,7 mm 3 m/s 746 mmHg 73%
    14:00 +18°C° 0,7 mm 3 m/s 746 mmHg 74%
    15:00 +18°C° 0,5 mm 3 m/s 746 mmHg 74%
    16:00 +18°C° 0,5 mm 3 m/s 746 mmHg 74%
    17:00 +18°C° 0,5 mm 3 m/s 746 mmHg 73%
    18:00 +17°C° 0,4 mm 2 m/s 747 mmHg 78%
    19:00 +16°C° 0,4 mm 2 m/s 747 mmHg 83%
    20:00 +15°C° 0,4 mm 2 m/s 747 mmHg 87%
    21:00 +14°C° 0,4 mm 2 m/s 747 mmHg 90%
    22:00 +13°C° 0,4 mm 2 m/s 748 mmHg 92%
    23:00 +12°C° 0,4 mm 2 m/s 748 mmHg 94%

    25 Iunie, Luni

    Timp Temperatura Precipitaţii Vânt Presiune Umiditate
    00:00 +10°C° 0 mm 2 m/s 748 mmHg 95%
    01:00 +10°C° 0 mm 2 m/s 748 mmHg 95%
    02:00 +9°C° 0 mm 2 m/s 748 mmHg 96%
    03:00 +9°C° 0 mm 2 m/s 749 mmHg 96%
    04:00 +10°C° 0 mm 2 m/s 749 mmHg 96%
    05:00 +10°C° 0 mm 2 m/s 749 mmHg 95%
    06:00 +12°C° 0 mm 2 m/s 750 mmHg 88%
    07:00 +14°C° 0 mm 2 m/s 750 mmHg 81%
    08:00 +16°C° 0 mm 2 m/s 750 mmHg 74%
    09:00 +17°C° 0 mm 3 m/s 750 mmHg 66%
    10:00 +18°C° 0 mm 3 m/s 750 mmHg 58%
    11:00 +20°C° 0 mm 3 m/s 750 mmHg 50%
    12:00 +20°C° 0,1 mm 3 m/s 750 mmHg 50%
    13:00 +21°C° 0,1 mm 4 m/s 750 mmHg 50%
    14:00 +21°C° 0,1 mm 4 m/s 750 mmHg 50%
    15:00 +21°C° 0,1 mm 4 m/s 750 mmHg 53%
    16:00 +21°C° 0,1 mm 4 m/s 750 mmHg 56%
    17:00 +20°C° 0,1 mm 3 m/s 750 mmHg 59%
    18:00 +19°C° 0,1 mm 3 m/s 750 mmHg 65%
    19:00 +18°C° 0,1 mm 3 m/s 751 mmHg 71%
    20:00 +16°C° 0,1 mm 2 m/s 751 mmHg 77%
    21:00 +15°C° 0 mm 2 m/s 751 mmHg 80%
    22:00 +15°C° 0 mm 2 m/s 751 mmHg 82%
    23:00 +14°C° 0 mm 2 m/s 751 mmHg 85%
    Arată mai mult